Terug naar catalogus

COSMOS 985

ActiefMilitairPO
NORAD 10599·PAYLOAD·🇷🇺 Russia

Gelanceerd Jan 17, 1978 vanaf Plesetsk Cosmodrome

Loading…

Volgende Passages (komende 24 uur)

TLE

VersSource: Space-Track

Epoch: Sep 14, 2026, 10:03 UTC

1 10599U 78007A   26257.41913423  .00000058  00000-0  43197-4 0  9996
2 10599  82.9430 322.0484 0051676 304.8642  54.7662 13.76936918444158

Volg COSMOS 985 in realtime met AllMySat

Download on the App Store